Temperature
7 5 5 5 6 7 7 6 6 6 6 5 4 4 4 4 3 3 3 3 3 4 4 4 4 5 5 5 4 4 4 4 4 4 4 4 5 4 4 4 4 5 5 5
5 5 6 6 6 6 6 6 6 6 5 5 4 4 3 3 3 3 3 3 3 3 3 3 4 4 4 4 4 4 4 4 4 4 4 4 4 4 4 4 4 4 4 4
5 5 6 6 6 6 6 5 5 5 5 4 4 4 3 3 3 3 3 3 3 3 3 3 3 3 3 3 4 3 3 3 3 3 3 3 3 3 3 3 3 3 3 3
4 5 6 6 5 6 5 5 5 5 4 3 4 3 3 2 1 1 1 1 2 2 2 2 2 2 3 3 3 3 3 3 3 2 2 2 3 3 3 3 3 3 3 3
4 4 5 5 5 5 5 4 4 4 3 2 2 2 3 1 1 1 1 1 2 2 2 2 2 2 2 2 2 2 2 2 2 2 2 2 2 2 2 2 2 2 2 2
3 3 4 4 4 4 4 4 3 2 2 2 2 2 2 1 1 1 1 1 1 1 1 1 1 1 1 1 1 1 1 1 1 1 1 1 1 1 1 1 1 1 1 1
3 3 3 3 3 3 3 3 2 2 1 2 2 2 2 1 0 1 0 1 1 1 1 1 1 1 1 1 1 1 1 1 0 0 0 0 0 0 0 0 0 0 0 0
3 3 2 2 2 2 2 3 3 3 2 2 1 1 1 -0 -1 0 1 0 0 0 1 0 1 1 0 0 0 0 0 0 -0 -0 -0 -1 -1 -1 -1 -1 -1 -0 -1 -1
2 2 1 1 1 2 2 1 2 1 1 0 0 -1 -0 -1 -1 -1 -1 -1 -1 -0 -0 0 0 0 0 -0 -0 -0 -0 -1 -1 -1 -1 -1 -1 -1 -1 -2 -1 -1 -1 -1
1 1 1 1 1 1 1 1 -0 1 1 2 1 -1 0 0 -1 -2 -3 -2 -1 -1 -1 -0 -0 -0 -0 -0 -1 -1 -1 -1 -1 -1 -2 -2 -2 -2 -2 -2 -2 -2 -2 -2
0 0 -0 -0 -0 0 -0 0 -0 -1 -0 1 1 0 -0 -1 -1 -2 -3 -2 -1 -1 -1 -1 -1 -1 -1 -1 -1 -1 -1 -2 -2 -2 -2 -2 -3 -3 -3 -3 -3 -3 -3 -3
-1 -1 -1 -1 -1 -1 -1 -1 -1 -0 -1 -2 -1 -0 -1 -2 -2 -3 -2 -2 -2 -1 -1 -1 -1 -2 -2 -2 -2 -2 -2 -2 -2 -3 -3 -3 -3 -3 -4 -4 -4 -4 -4 -4
-1 -2 -1 -0 -1 -2 -2 -2 -2 -2 -2 -2 -2 -0 -2 -3 -3 -3 -2 -2 -2 -2 -2 -2 -2 -2 -2 -2 -2 -3 -3 -3 -3 -3 -4 -4 -4 -4 -4 -4 -4 -4 -4 -4
-1 -3 -2 -0 -0 -2 -3 -3 -3 -3 -3 -3 -3 -1 -2 -3 -3 -3 -3 -3 -3 -3 -3 -3 -3 -3 -3 -3 -3 -3 -3 -4 -4 -4 -4 -4 -5 -5 -5 -5 -5 -5 -5 -5
-2 -3 -3 -3 -3 -3 -3 -3 -3 -3 -3 -3 -2 -3 -2 -3 -4 -3 -3 -3 -4 -4 -4 -4 -4 -4 -4 -4 -4 -4 -4 -4 -5 -5 -5 -5 -5 -5 -5 -6 -6 -6 -6 -6
-4 -4 -4 -4 -3 -3 -3 -3 -3 -3 -3 -4 -3 -3 -3 -4 -4 -4 -4 -4 -5 -5 -5 -4 -4 -4 -4 -5 -5 -5 -5 -5 -5 -5 -5 -6 -6 -6 -6 -6 -6 -6 -6 -6
-5 -5 -4 -4 -4 -4 -4 -4 -4 -5 -5 -5 -4 -3 -5 -5 -5 -5 -5 -5 -5 -5 -5 -5 -5 -5 -5 -5 -5 -5 -5 -5 -6 -6 -6 -6 -6 -6 -6 -7 -7 -7 -7 -7
-5 -5 -5 -5 -5 -4 -3 -5 -5 -5 -5 -6 -6 -6 -6 -6 -6 -6 -5 -5 -5 -5 -6 -6 -5 -6 -6 -6 -6 -6 -6 -6 -6 -6 -7 -7 -7 -7 -7 -7 -7 -7 -7 -7
-6 -5 -5 -5 -5 -5 -4 -5 -6 -6 -6 -7 -7 -7 -7 -7 -7 -6 -6 -6 -6 -6 -6 -6 -6 -6 -6 -6 -6 -6 -7 -7 -7 -7 -7 -8 -8 -8 -8 -8 -8 -8 -8 -8
-7 -7 -6 -6 -5 -4 -4 -5 -6 -6 -6 -7 -7 -8 -8 -8 -7 -7 -6 -6 -6 -6 -7 -7 -7 -7 -7 -7 -7 -7 -7 -8 -8 -8 -8 -8 -8 -8 -8 -8 -9 -9 -9 -9
-7 -7 -7 -7 -6 -5 -6 -7 -6 -5 -5 -6 -7 -7 -8 -8 -8 -7 -7 -7 -7 -7 -7 -7 -7 -7 -8 -8 -8 -8 -8 -8 -8 -9 -9 -9 -9 -9 -9 -9 -9 -9 -9 -9
-7 -7 -8 -7 -6 -5 -7 -7 -6 -6 -6 -6 -7 -7 -8 -8 -7 -8 -8 -8 -8 -8 -8 -8 -8 -8 -8 -9 -9 -9 -9 -9 -9 -9 -9 -9 -10 -10 -10 -10 -10 -10 -10 -10
-8 -7 -7 -7 -6 -6 -7 -7 -6 -6 -7 -7 -7 -7 -8 -8 -8 -8 -9 -9 -9 -9 -9 -9 -9 -9 -9 -9 -9 -9 -9 -9 -10 -10 -10 -10 -10 -10 -10 -10 -10 -10 -11 -11
-9 -9 -9 -9 -8 -8 -7 -7 -7 -7 -7 -8 -8 -8 -8 -8 -9 -9 -9 -9 -9 -9 -9 -9 -10 -10 -10 -10 -10 -10 -10 -10 -10 -10 -10 -11 -11 -11 -11 -11 -11 -11 -11 -11
-9 -10 -9 -9 -10 -9 -8 -8 -8 -8 -8 -8 -8 -8 -9 -9 -9 -9 -10 -10 -10 -10 -10 -10 -10 -10 -10 -10 -10 -10 -11 -11 -11 -11 -11 -11 -11 -11 -11 -11 -11 -11 -11 -12
-10 -10 -9 -8 -8 -9 -8 -7 -8 -8 -8 -9 -9 -9 -9 -10 -10 -10 -10 -10 -10 -11 -11 -11 -11 -11 -11 -11 -11 -11 -11 -12 -12 -12 -12 -12 -12 -12 -12 -12 -12 -12 -12 -12
Wind_Speed
2 4 5 9 9 5 5 5 5 5 3 4 8 9 8 5 5 6 6 6 7 7 4 4 4 4 4 4 4 4 4 3 3 2 2 2 1 1 2 3 3 4 4 4
3 4 7 4 3 3 3 4 5 4 1 3 5 8 6 6 7 8 9 9 8 5 4 4 4 4 4 4 4 4 4 3 3 2 2 2 2 1 1 2 3 3 3 3
6 4 2 3 3 4 5 6 6 4 2 1 2 6 4 5 4 4 5 6 7 8 8 6 5 4 4 4 4 4 4 3 3 3 2 2 2 1 1 1 1 2 2 3
2 3 1 2 3 5 7 5 5 3 2 4 2 5 6 4 3 5 6 5 6 6 6 6 6 5 5 4 3 3 3 3 3 4 4 4 3 2 1 1 0 2 2 3
3 1 1 4 4 3 4 1 2 2 3 2 2 4 7 1 5 7 7 7 6 6 7 7 7 6 5 4 3 3 4 3 3 3 4 4 2 1 1 1 1 1 2 2
2 1 0 2 1 1 2 3 4 4 3 4 7 6 7 4 6 5 5 6 6 6 6 6 5 5 4 3 3 3 4 3 3 3 3 3 3 2 2 1 1 0 0 1
3 2 1 1 2 3 3 4 2 3 1 7 4 5 8 4 4 5 6 6 5 5 6 6 6 5 5 4 4 3 4 3 3 3 3 3 3 3 4 3 2 2 1 1
2 5 2 0 3 4 3 5 5 5 6 5 2 7 6 3 3 2 2 4 4 4 5 6 6 6 6 5 5 4 4 3 3 3 3 2 2 2 2 2 2 2 2 2
3 5 2 2 1 3 3 3 3 3 1 4 6 6 7 2 3 1 1 2 4 4 4 5 5 6 6 6 5 5 5 3 3 3 3 2 2 2 2 2 2 2 2 1
2 3 3 2 1 2 1 3 3 3 3 6 6 5 4 5 4 3 3 4 4 3 3 3 4 5 5 5 4 4 4 4 3 3 3 2 2 3 3 2 2 2 2 2
1 2 3 1 3 4 2 2 3 3 3 5 5 6 3 4 4 4 5 3 3 4 4 3 4 4 4 4 4 4 3 3 3 3 2 2 2 2 2 2 3 2 2 2
1 2 3 5 2 1 3 4 5 4 5 4 4 7 2 2 3 2 3 2 1 2 2 2 2 2 3 3 4 4 3 3 3 3 2 2 2 2 2 3 3 3 2 3
2 3 2 5 2 2 2 2 3 3 2 4 5 7 2 4 4 3 2 2 1 1 1 1 2 3 3 3 3 3 3 3 2 2 2 2 2 3 3 3 3 3 3 3
2 3 5 8 5 3 4 3 3 4 4 6 8 9 6 6 5 5 3 2 2 2 1 2 2 3 3 3 3 3 3 3 3 2 3 3 3 3 3 3 3 3 3 3
3 3 4 6 6 4 5 6 6 8 8 9 9 9 10 7 7 5 4 3 2 3 3 3 3 3 3 3 3 3 3 3 3 3 3 4 3 3 3 3 3 3 3 4
1 2 2 5 4 5 7 9 9 10 9 10 11 13 9 6 3 3 3 3 4 5 5 4 4 3 4 4 3 3 3 3 3 3 3 3 3 3 3 3 3 3 3 3
3 3 2 5 5 4 8 8 9 6 6 7 11 11 6 5 5 5 4 4 5 6 5 5 4 4 4 4 3 3 3 2 3 3 3 3 3 3 3 3 3 3 3 3
5 4 3 2 2 7 7 2 5 6 6 7 6 6 5 5 5 4 3 4 5 5 4 4 4 3 3 2 2 2 2 2 2 3 3 3 3 3 3 3 3 3 3 3
4 5 3 2 4 8 7 2 3 5 6 5 6 6 4 3 4 3 2 1 3 4 4 4 3 3 2 1 1 1 1 2 2 3 3 3 3 3 3 4 4 4 3 4
2 3 3 3 3 6 6 2 1 2 5 3 3 4 2 2 2 4 3 3 4 4 3 3 2 1 1 1 0 1 1 2 3 3 4 3 3 4 4 4 4 3 3 4
2 2 5 6 6 8 5 2 2 3 6 2 2 3 3 3 5 4 4 4 3 3 3 2 1 1 1 1 0 1 1 3 4 3 2 3 3 3 4 3 3 3 4 3
7 5 6 5 5 8 2 3 5 5 2 1 1 2 3 4 4 3 3 3 3 3 3 2 1 2 2 1 0 1 3 3 2 2 2 3 3 3 3 3 3 3 3 3
7 7 5 8 7 3 4 4 2 1 2 2 2 3 3 3 4 3 3 3 3 2 2 1 1 2 2 1 1 2 3 2 2 2 2 3 3 3 3 3 3 3 3 3
4 2 3 5 7 4 3 2 1 1 3 3 3 3 3 4 4 3 3 3 3 3 2 2 1 2 3 2 2 2 3 2 1 2 3 3 2 3 3 3 3 3 3 4
5 4 4 6 6 4 3 3 3 3 3 3 3 3 3 3 4 3 3 3 3 3 2 2 2 2 3 3 3 3 2 1 2 2 2 2 3 3 3 3 4 4 5 5
4 5 6 7 5 4 5 3 3 3 4 4 3 3 3 3 4 3 3 3 3 3 2 2 3 3 3 3 3 3 2 1 2 2 2 2 2 2 3 3 4 7 7 10
Wind_Direction
102 100 201 213 208 205 183 195 231 247 218 184 220 240 240 217 209 213 207 201 198 202 189 162 154 143 135 135 138 141 133 124 115 128 131 121 112 89 73 68 81 93 91 90
74 234 236 222 212 223 223 236 248 275 229 202 248 261 252 221 217 214 207 205 205 195 174 167 158 150 152 159 155 151 150 147 140 143 152 150 146 143 93 55 61 87 93 96
188 243 251 191 208 213 231 215 229 243 333 335 321 295 253 243 227 231 220 209 200 192 188 180 170 168 162 164 170 169 163 152 150 131 118 110 91 78 67 56 37 43 85 100
226 283 262 186 217 205 241 232 219 211 206 259 205 275 271 242 257 242 231 217 210 198 185 177 170 170 176 184 175 167 160 149 144 136 137 144 147 155 198 199 169 33 67 85
250 303 213 214 234 205 223 227 199 202 186 266 242 231 277 251 257 251 236 223 211 195 181 178 177 177 176 170 159 159 149 144 138 139 148 151 150 153 141 120 114 71 41 62
248 300 280 237 304 179 133 54 38 48 88 253 224 205 269 222 233 246 230 217 204 192 183 177 173 164 161 151 142 149 150 149 149 146 145 154 153 141 134 137 152 181 95 24
310 295 338 66 59 20 72 92 17 332 292 248 214 209 249 247 248 225 214 210 199 184 176 174 173 174 171 163 162 163 161 162 161 157 159 167 171 169 174 186 185 187 196 242
259 278 258 237 180 192 203 162 182 219 238 270 259 231 251 275 297 279 212 182 176 182 182 184 184 179 177 177 175 177 176 177 175 172 174 173 177 188 196 198 198 199 213 223
208 255 344 5 3 147 161 213 196 172 232 266 262 281 298 313 335 336 175 168 192 200 197 194 188 185 184 186 190 189 186 189 188 183 177 183 190 200 214 212 204 213 226 239
179 260 294 319 27 18 146 151 110 159 206 251 270 264 264 284 275 258 234 218 217 206 200 200 195 192 189 188 192 185 186 193 196 189 194 206 209 213 217 213 218 221 230 236
118 206 299 335 206 210 148 167 184 185 193 204 256 264 247 250 257 243 241 237 217 203 203 205 196 184 180 173 176 180 186 188 195 200 202 210 224 225 216 218 225 225 228 222
127 141 260 256 267 287 196 197 173 196 240 216 226 264 306 296 288 253 256 262 242 211 197 191 185 170 170 178 183 187 193 199 205 204 205 221 233 226 225 232 237 231 224 226
133 128 324 323 327 346 269 237 204 193 191 209 222 261 335 358 346 325 291 272 266 265 246 210 188 190 194 196 196 197 198 202 203 200 210 231 238 235 238 241 245 240 234 230
121 168 201 230 246 227 251 248 200 179 217 239 233 254 291 312 307 310 304 277 269 267 262 248 239 228 216 209 205 202 207 205 206 209 218 230 234 236 239 243 242 244 241 235
113 216 240 257 265 246 244 244 222 215 220 230 251 254 268 266 266 273 278 279 279 279 269 260 257 248 238 227 222 216 214 211 208 212 227 235 238 239 240 240 244 249 249 248
122 202 255 279 273 275 273 258 238 237 239 243 261 270 274 278 263 271 274 271 271 273 272 276 277 261 242 238 238 232 226 220 207 215 235 243 240 240 242 244 249 253 254 253
182 170 208 266 294 317 274 242 219 221 219 214 240 257 290 301 286 269 262 262 264 270 277 278 270 259 248 242 236 228 225 216 207 223 238 239 235 237 242 245 249 251 252 249
173 178 198 265 1 252 250 214 196 217 240 228 244 269 277 276 285 280 264 259 270 284 294 295 293 289 274 252 241 233 207 196 211 231 240 239 236 240 243 241 246 249 249 246
182 172 177 189 249 271 286 248 188 212 264 234 244 273 294 329 330 309 296 304 279 286 290 293 292 286 270 253 233 196 205 203 219 238 247 247 238 240 242 242 247 251 252 255
87 143 170 184 223 249 258 261 205 124 279 258 217 248 269 19 316 284 318 334 322 322 318 314 315 330 307 285 200 159 217 221 239 248 253 253 243 239 242 243 250 255 253 255
141 167 199 210 233 261 260 270 114 175 259 274 211 228 218 221 232 272 311 321 320 325 329 337 346 344 306 294 133 202 250 252 255 257 258 257 254 250 248 249 254 251 254 259
184 186 201 188 218 256 212 142 186 226 306 304 258 240 233 248 273 288 296 306 319 331 340 349 358 335 329 329 163 251 271 276 275 260 258 262 263 261 259 249 257 254 247 258
203 198 197 201 220 254 178 200 221 179 231 253 247 255 237 254 268 279 288 293 304 308 313 320 313 313 316 303 222 251 276 284 278 264 261 267 272 270 264 252 253 257 245 247
250 205 198 249 260 256 247 254 279 233 236 253 250 256 239 248 262 271 278 290 300 301 299 299 296 295 296 294 276 259 274 279 264 260 266 269 267 272 272 264 257 252 245 246
225 184 212 250 272 302 271 231 251 264 259 268 278 264 244 244 264 263 271 276 278 288 294 288 271 273 283 293 291 289 286 271 266 269 269 270 265 264 271 270 257 256 243 243
199 188 199 235 229 217 252 244 243 256 263 266 276 286 273 244 251 259 263 267 269 274 284 292 289 286 288 290 293 297 294 262 248 269 271 264 262 267 271 281 291 284 277 277
Height
1499 1504 1506 1503 1502 1501 1504 1506 1507 1505 1503 1506 1507 1505 1503 1503 1504 1504 1504 1505 1505 1506 1508 1509 1511 1512 1514 1516 1517 1519 1520 1522 1523 1524 1525 1526 1527 1528 1529 1530 1530 1530 1531 1532
1503 1505 1500 1500 1501 1502 1504 1507 1507 1505 1504 1506 1507 1504 1501 1500 1500 1499 1500 1501 1501 1503 1504 1506 1507 1509 1511 1512 1514 1516 1517 1519 1520 1521 1522 1523 1524 1525 1526 1527 1527 1528 1528 1529
1501 1501 1498 1499 1501 1502 1503 1506 1505 1505 1505 1506 1507 1503 1500 1497 1497 1497 1497 1497 1498 1499 1500 1502 1503 1505 1507 1509 1511 1512 1514 1516 1517 1518 1520 1521 1521 1522 1523 1523 1524 1525 1525 1526
1502 1499 1498 1499 1500 1500 1502 1500 1501 1503 1507 1511 1509 1509 1498 1496 1496 1494 1493 1493 1494 1495 1497 1498 1500 1502 1504 1506 1508 1510 1511 1513 1514 1515 1516 1517 1517 1518 1519 1520 1521 1522 1523 1523
1501 1499 1499 1499 1499 1499 1500 1500 1501 1503 1507 1513 1512 1512 1499 1498 1496 1492 1490 1490 1490 1492 1494 1495 1497 1499 1501 1503 1505 1507 1508 1510 1511 1512 1513 1514 1514 1515 1516 1517 1518 1518 1519 1519
1501 1500 1499 1499 1498 1498 1500 1502 1504 1509 1511 1513 1509 1510 1498 1497 1491 1488 1487 1487 1488 1490 1491 1493 1495 1497 1499 1501 1502 1504 1505 1506 1508 1509 1510 1510 1511 1511 1512 1513 1513 1513 1514 1515
1502 1500 1499 1499 1500 1500 1501 1506 1513 1513 1518 1509 1504 1504 1496 1489 1486 1484 1484 1484 1485 1487 1489 1490 1492 1494 1496 1498 1499 1501 1502 1503 1505 1506 1506 1507 1508 1508 1508 1509 1509 1510 1510 1510
1504 1502 1500 1499 1500 1501 1503 1504 1509 1511 1511 1507 1505 1503 1491 1486 1484 1482 1483 1483 1484 1485 1487 1488 1490 1492 1494 1495 1497 1498 1499 1500 1501 1502 1503 1503 1504 1504 1505 1505 1505 1506 1506 1507
1505 1502 1501 1500 1500 1500 1502 1504 1503 1508 1511 1512 1505 1501 1490 1484 1483 1482 1482 1482 1483 1484 1485 1486 1488 1490 1491 1493 1494 1495 1496 1497 1497 1498 1499 1500 1500 1501 1500 1501 1502 1502 1502 1503
1504 1505 1503 1502 1501 1501 1502 1503 1508 1509 1508 1504 1502 1502 1493 1485 1483 1483 1482 1481 1482 1483 1484 1485 1486 1487 1489 1490 1491 1492 1493 1493 1494 1494 1495 1496 1496 1496 1497 1497 1497 1498 1498 1498
1503 1507 1506 1504 1503 1502 1504 1505 1504 1507 1506 1505 1503 1496 1485 1483 1482 1481 1480 1480 1481 1481 1482 1482 1483 1485 1486 1487 1488 1489 1490 1490 1490 1491 1491 1492 1492 1492 1493 1493 1493 1493 1494 1494
1504 1507 1508 1505 1503 1501 1501 1501 1504 1505 1505 1508 1506 1496 1482 1482 1480 1480 1479 1480 1480 1481 1481 1481 1481 1482 1483 1483 1484 1485 1486 1486 1487 1487 1487 1488 1488 1488 1488 1488 1489 1489 1490 1490
1503 1508 1510 1504 1505 1505 1504 1502 1502 1503 1505 1507 1504 1493 1482 1481 1480 1480 1479 1479 1479 1479 1479 1479 1479 1479 1479 1480 1481 1482 1482 1483 1483 1483 1483 1484 1484 1484 1484 1484 1485 1485 1485 1486
1500 1506 1507 1503 1499 1502 1504 1502 1502 1503 1504 1504 1498 1488 1482 1482 1480 1479 1479 1478 1478 1477 1477 1477 1476 1476 1476 1477 1478 1478 1478 1479 1479 1479 1479 1479 1479 1480 1480 1480 1480 1481 1481 1481
1501 1505 1506 1503 1501 1500 1499 1498 1499 1500 1497 1497 1489 1487 1480 1480 1479 1478 1477 1476 1475 1475 1474 1474 1473 1473 1473 1473 1474 1474 1475 1475 1475 1475 1475 1475 1475 1475 1476 1476 1476 1476 1476 1477
1502 1505 1505 1503 1499 1499 1497 1494 1494 1493 1492 1491 1487 1483 1476 1477 1477 1475 1474 1474 1473 1472 1471 1471 1470 1470 1469 1470 1470 1470 1471 1471 1471 1471 1471 1471 1471 1471 1471 1472 1472 1472 1472 1472
1502 1505 1505 1502 1501 1498 1494 1489 1489 1489 1487 1486 1484 1478 1475 1475 1474 1473 1472 1471 1470 1469 1468 1467 1467 1466 1466 1466 1467 1467 1467 1467 1467 1467 1467 1467 1467 1467 1467 1467 1467 1467 1467 1468
1500 1502 1504 1504 1504 1500 1483 1481 1481 1482 1481 1481 1478 1475 1474 1473 1471 1470 1469 1469 1467 1466 1465 1464 1464 1463 1463 1463 1464 1464 1464 1463 1463 1463 1463 1463 1463 1463 1463 1463 1463 1463 1463 1463
1495 1498 1502 1504 1503 1493 1483 1480 1481 1482 1479 1477 1476 1474 1473 1471 1469 1468 1467 1466 1466 1464 1463 1462 1461 1460 1460 1460 1460 1460 1460 1460 1459 1459 1459 1459 1459 1459 1459 1459 1459 1459 1458 1458
1497 1498 1501 1503 1500 1494 1479 1477 1476 1479 1479 1473 1472 1472 1472 1471 1472 1469 1466 1464 1463 1462 1461 1460 1459 1458 1457 1457 1457 1457 1456 1456 1456 1456 1456 1456 1455 1455 1455 1455 1454 1454 1454 1453
1499 1501 1502 1501 1499 1487 1478 1476 1477 1482 1474 1471 1469 1469 1469 1469 1468 1466 1464 1462 1461 1460 1459 1458 1456 1456 1455 1455 1454 1453 1453 1453 1453 1453 1452 1452 1452 1451 1451 1451 1450 1450 1449 1449
1494 1497 1499 1498 1497 1485 1475 1475 1476 1473 1470 1468 1468 1467 1467 1465 1464 1463 1462 1460 1459 1458 1456 1455 1454 1453 1453 1452 1451 1450 1450 1450 1450 1449 1448 1448 1448 1447 1447 1446 1446 1445 1445 1444
1488 1486 1485 1485 1480 1473 1471 1470 1469 1469 1468 1467 1466 1465 1464 1463 1461 1460 1459 1458 1456 1455 1454 1453 1451 1451 1450 1450 1449 1447 1447 1447 1446 1445 1444 1444 1444 1443 1443 1442 1441 1441 1440 1440
1482 1480 1481 1480 1473 1470 1469 1468 1467 1467 1466 1465 1464 1463 1462 1460 1459 1458 1456 1455 1454 1453 1451 1450 1449 1447 1447 1446 1445 1444 1444 1443 1442 1441 1441 1440 1440 1439 1439 1438 1437 1436 1436 1435
1476 1478 1477 1475 1469 1468 1466 1465 1465 1464 1463 1462 1461 1460 1459 1458 1456 1455 1453 1452 1451 1450 1449 1447 1446 1444 1443 1443 1442 1441 1440 1439 1438 1437 1437 1436 1436 1435 1434 1434 1433 1432 1432 1431
1471 1472 1472 1468 1464 1465 1463 1462 1462 1461 1460 1459 1457 1456 1455 1454 1453 1451 1450 1449 1448 1446 1445 1444 1442 1441 1440 1439 1438 1437 1437 1436 1434 1433 1433 1432 1431 1431 1430 1429 1428 1428 1428 1427